Location: Great Falls Observatory Park
(38.9954°N, 77.3130°W)
Time: 22:23:42
(UTC-05:00)

ISS - Pass Details

Date: 30 October 2019
Orbit: 412 x 421 km, 51.6° (Epoch: 22 November)

Event Time Altitude Azimuth Distance (km) Brightness Sun altitude
Exits shadow 06:55:11 - 312° (NW) 1,666 -1.2 -8.2°
Reaches altitude 10° 06:55:59 10° 323° (NW) 1,508 -1.4 -8.0°
Maximum altitude 06:57:22 12° 347° (NNW) 1,393 -1.3 -7.8°
Drops below altitude 10° 06:58:45 10° 12° (NNE) 1,508 -0.9 -7.5°
Sets 07:02:06 0° 46° (NE) 2,412 0.6 -6.9°
